Stündliche Wetter Abzaevo

Heute, 24 Juni, Donnerstag

Zeit Temperatur Niederschläge Wind Luftdruck Luftfeuchtigkeit
00:00 +17°C° 0 mm 2 m/S 755 mmHg 90%
01:00 +16°C° 0 mm 2 m/S 755 mmHg 91%
02:00 +16°C° 0 mm 2 m/S 755 mmHg 91%
03:00 +15°C° 0 mm 2 m/S 755 mmHg 91%
04:00 +15°C° 0 mm 2 m/S 756 mmHg 91%
05:00 +16°C° 0 mm 2 m/S 756 mmHg 85%
06:00 +17°C° 0 mm 2 m/S 756 mmHg 79%
07:00 +19°C° 0 mm 2 m/S 756 mmHg 73%
08:00 +21°C° 0 mm 1 m/S 756 mmHg 65%
09:00 +23°C° 0 mm 1 m/S 756 mmHg 58%
10:00 +24°C° 0 mm 1 m/S 756 mmHg 50%
11:00 +25°C° 0 mm 1 m/S 756 mmHg 48%
12:00 +26°C° 0 mm 1 m/S 756 mmHg 47%
13:00 +27°C° 0 mm 1 m/S 756 mmHg 45%
14:00 +27°C° 0 mm 1 m/S 756 mmHg 46%
15:00 +28°C° 0 mm 1 m/S 755 mmHg 47%
16:00 +28°C° 0 mm 1 m/S 755 mmHg 49%
17:00 +27°C° 0 mm 1 m/S 755 mmHg 56%
18:00 +27°C° 0 mm 1 m/S 754 mmHg 63%
19:00 +26°C° 0 mm 2 m/S 754 mmHg 70%
20:00 +25°C° 0.2 mm 2 m/S 754 mmHg 74%
21:00 +22°C° 0.2 mm 3 m/S 753 mmHg 79%
22:00 +20°C° 0.2 mm 3 m/S 753 mmHg 83%
23:00 +20°C° 0.4 mm 3 m/S 753 mmHg 86%

Morgen, 25 Juni, Freitag

Zeit Temperatur Niederschläge Wind Luftdruck Luftfeuchtigkeit
00:00 +19°C° 0.4 mm 3 m/S 752 mmHg 90%
01:00 +19°C° 0.4 mm 4 m/S 752 mmHg 93%
02:00 +19°C° 0.3 mm 3 m/S 752 mmHg 94%
03:00 +19°C° 0.3 mm 3 m/S 752 mmHg 95%
04:00 +19°C° 0.3 mm 3 m/S 752 mmHg 96%
05:00 +20°C° 0 mm 3 m/S 752 mmHg 92%
06:00 +21°C° 0 mm 3 m/S 752 mmHg 88%
07:00 +22°C° 0 mm 3 m/S 752 mmHg 85%
08:00 +25°C° 0 mm 3 m/S 752 mmHg 79%
09:00 +26°C° 0 mm 2 m/S 751 mmHg 73%
10:00 +28°C° 0 mm 2 m/S 751 mmHg 66%
11:00 +29°C° 0 mm 2 m/S 751 mmHg 63%
12:00 +30°C° 0 mm 2 m/S 751 mmHg 60%
13:00 +31°C° 0 mm 3 m/S 751 mmHg 57%
14:00 +31°C° 0 mm 3 m/S 751 mmHg 55%
15:00 +33°C° 0 mm 3 m/S 751 mmHg 54%
16:00 +33°C° 0 mm 3 m/S 750 mmHg 53%
17:00 +31°C° 0.1 mm 3 m/S 750 mmHg 59%
18:00 +30°C° 0.1 mm 3 m/S 749 mmHg 66%
19:00 +29°C° 0.1 mm 2 m/S 749 mmHg 72%
20:00 +28°C° 0.2 mm 3 m/S 749 mmHg 76%
21:00 +26°C° 0.2 mm 3 m/S 749 mmHg 79%
22:00 +25°C° 0.2 mm 4 m/S 749 mmHg 83%
23:00 +24°C° 2.1 mm 3 m/S 749 mmHg 86%

übermorgen, 26 Juni, Samstag

Zeit Temperatur Niederschläge Wind Luftdruck Luftfeuchtigkeit
00:00 +23°C° 2.1 mm 2 m/S 749 mmHg 89%
01:00 +21°C° 2.1 mm 2 m/S 749 mmHg 92%
02:00 +21°C° 0 mm 2 m/S 749 mmHg 93%
03:00 +20°C° 0 mm 2 m/S 749 mmHg 94%
04:00 +20°C° 0 mm 3 m/S 749 mmHg 95%
05:00 +21°C° 0.1 mm 3 m/S 749 mmHg 93%
06:00 +22°C° 0.1 mm 3 m/S 749 mmHg 90%
07:00 +24°C° 0.1 mm 3 m/S 749 mmHg 88%
08:00 +25°C° 0 mm 3 m/S 749 mmHg 80%
09:00 +26°C° 0 mm 3 m/S 749 mmHg 72%
10:00 +27°C° 0 mm 3 m/S 749 mmHg 65%
11:00 +28°C° 0 mm 4 m/S 749 mmHg 62%
12:00 +29°C° 0 mm 4 m/S 749 mmHg 60%
13:00 +30°C° 0 mm 4 m/S 749 mmHg 57%
14:00 +30°C° 0 mm 4 m/S 749 mmHg 56%
15:00 +32°C° 0 mm 4 m/S 749 mmHg 55%
16:00 +32°C° 0 mm 4 m/S 749 mmHg 54%
17:00 +30°C° 0.1 mm 4 m/S 749 mmHg 60%
18:00 +29°C° 0.1 mm 3 m/S 748 mmHg 67%
19:00 +28°C° 0.1 mm 3 m/S 748 mmHg 73%
20:00 +26°C° 0.5 mm 3 m/S 748 mmHg 79%
21:00 +25°C° 0.5 mm 2 m/S 748 mmHg 84%
22:00 +23°C° 0.5 mm 2 m/S 749 mmHg 89%
23:00 +23°C° 0.2 mm 1 m/S 749 mmHg 89%

27 Juni, Sonntag

Zeit Temperatur Niederschläge Wind Luftdruck Luftfeuchtigkeit
00:00 +23°C° 0.2 mm 1 m/S 749 mmHg 89%
01:00 +22°C° 0.2 mm 1 m/S 749 mmHg 89%
02:00 +22°C° 0.1 mm 1 m/S 749 mmHg 89%
03:00 +22°C° 0.1 mm 1 m/S 749 mmHg 90%
04:00 +22°C° 0.1 mm 1 m/S 749 mmHg 90%
05:00 +23°C° 0 mm 1 m/S 749 mmHg 87%
06:00 +23°C° 0 mm 1 m/S 749 mmHg 84%
07:00 +24°C° 0 mm 2 m/S 749 mmHg 81%
08:00 +26°C° 0 mm 2 m/S 749 mmHg 76%
09:00 +27°C° 0 mm 3 m/S 750 mmHg 70%
10:00 +28°C° 0 mm 3 m/S 750 mmHg 64%
11:00 +29°C° 0 mm 3 m/S 750 mmHg 60%
12:00 +30°C° 0 mm 4 m/S 750 mmHg 56%
13:00 +30°C° 0 mm 4 m/S 750 mmHg 53%
14:00 +30°C° 0 mm 4 m/S 750 mmHg 52%
15:00 +30°C° 0 mm 4 m/S 750 mmHg 51%
16:00 +30°C° 0 mm 4 m/S 750 mmHg 51%
17:00 +29°C° 0 mm 4 m/S 751 mmHg 56%
18:00 +28°C° 0 mm 3 m/S 751 mmHg 61%
19:00 +27°C° 0 mm 3 m/S 751 mmHg 66%
20:00 +25°C° 0 mm 2 m/S 751 mmHg 69%
21:00 +23°C° 0 mm 2 m/S 751 mmHg 72%
22:00 +22°C° 0 mm 1 m/S 751 mmHg 74%
23:00 +21°C° 0 mm 1 m/S 752 mmHg 75%

28 Juni, Montag

Zeit Temperatur Niederschläge Wind Luftdruck Luftfeuchtigkeit
00:00 +20°C° 0 mm 1 m/S 752 mmHg 75%
01:00 +20°C° 0 mm 1 m/S 752 mmHg 75%
02:00 +19°C° 0 mm 1 m/S 752 mmHg 77%
03:00 +19°C° 0 mm 1 m/S 752 mmHg 78%
04:00 +19°C° 0 mm 1 m/S 752 mmHg 80%
05:00 +19°C° 0 mm 2 m/S 753 mmHg 76%
06:00 +20°C° 0 mm 2 m/S 753 mmHg 73%
07:00 +23°C° 0 mm 2 m/S 753 mmHg 70%
08:00 +24°C° 0 mm 2 m/S 753 mmHg 65%
09:00 +25°C° 0 mm 2 m/S 753 mmHg 60%
10:00 +27°C° 0 mm 2 m/S 753 mmHg 56%
11:00 +27°C° 0 mm 2 m/S 753 mmHg 52%
12:00 +28°C° 0 mm 2 m/S 753 mmHg 49%
13:00 +29°C° 0 mm 2 m/S 753 mmHg 45%
14:00 +29°C° 0 mm 2 m/S 753 mmHg 45%
15:00 +29°C° 0 mm 2 m/S 753 mmHg 45%
16:00 +29°C° 0 mm 2 m/S 753 mmHg 44%
17:00 +29°C° 0 mm 2 m/S 753 mmHg 50%
18:00 +28°C° 0 mm 2 m/S 753 mmHg 56%
19:00 +27°C° 0 mm 2 m/S 753 mmHg 62%
20:00 +25°C° 0 mm 2 m/S 753 mmHg 65%
21:00 +23°C° 0 mm 2 m/S 753 mmHg 67%
22:00 +20°C° 0 mm 2 m/S 753 mmHg 69%
23:00 +21°C° 0 mm 1 m/S 753 mmHg 72%

29 Juni, Dienstag

Zeit Temperatur Niederschläge Wind Luftdruck Luftfeuchtigkeit
00:00 +20°C° 0 mm 1 m/S 753 mmHg 75%
01:00 +19°C° 0 mm 1 m/S 753 mmHg 78%
02:00 +19°C° 0 mm 1 m/S 753 mmHg 78%
03:00 +19°C° 0 mm 1 m/S 753 mmHg 78%
04:00 +18°C° 0 mm 1 m/S 753 mmHg 78%
05:00 +19°C° 0 mm 2 m/S 753 mmHg 74%
06:00 +20°C° 0 mm 2 m/S 753 mmHg 70%
07:00 +23°C° 0 mm 2 m/S 753 mmHg 66%
08:00 +24°C° 0 mm 3 m/S 753 mmHg 62%
09:00 +26°C° 0 mm 3 m/S 753 mmHg 59%
10:00 +27°C° 0 mm 3 m/S 753 mmHg 55%
11:00 +28°C° 0 mm 4 m/S 753 mmHg 54%
12:00 +28°C° 0 mm 4 m/S 753 mmHg 53%
13:00 +29°C° 0 mm 4 m/S 753 mmHg 51%
14:00 +30°C° 0 mm 4 m/S 752 mmHg 50%
15:00 +30°C° 0 mm 3 m/S 752 mmHg 49%
16:00 +30°C° 0 mm 3 m/S 752 mmHg 47%
17:00 +30°C° 0 mm 3 m/S 752 mmHg 53%
18:00 +29°C° 0 mm 3 m/S 752 mmHg 59%
19:00 +28°C° 0 mm 3 m/S 751 mmHg 65%
20:00 +26°C° 0 mm 3 m/S 751 mmHg 70%
21:00 +25°C° 0 mm 3 m/S 751 mmHg 75%
22:00 +22°C° 0 mm 3 m/S 751 mmHg 80%
23:00 +22°C° 0 mm 3 m/S 751 mmHg 81%
Mehr zeigen

Wir brauchen deine Erlaubnis

Meteoprog und unser Service Anbieter werden persönliche Daten aufbewahren, so wie Cookies, Geräte Bezeichnung oder ähnliche Technologien von deinem Gerät und Prozess, so wie Persönliche Daten Inhalte und Werbungen, genauso wie social Media und den Verkehr zu analysieren.

  • Aufbewahrung und/oder Zugang zu deiner Geräte Informationen.

    Cookies, Geräte Bezeichnung oder andere Informationen, können aufbewahrt oder Zugang zu deinem Gerät erhalten, für den Grund, der oben angegeben wird.

  • Personalisierte Werbung und Inhalte, Messungen, Einblick in das Publikum und Produkt Entwicklung.

    Werbungen und Inhalte können personalisiert werden, basierend auf ein Profil. Mehr Daten können besser personalisierte Werbungen und Inhalte hinzufügen. Werbung und Inhalte können gezeigt und gemessen werden. Einblicke über das Publikum, welche die Werbung gesehen haben und den Inhalt, können abgeleitet werden. So wie Daten können genutzt werden, um es zu verbessern oder die Benutzer Erfahrung zu verbessern das System und die Software.

Wenn du “Ich stimme zu” klickst, erlaubst du uns, die Cookies zu benutzen die Geräte Bezeichnung, den Web oder ähnliche Technologien zu benutzen. Deine Settings, können in deinem Gerät bei deinem Browser geändert werden.

Für den bestimmten Zweck, berechtigten Interessen beruhen darauf, mehr als auf den Inhalt. Du kannst mehr darüber in unseren Privaten und Cookie Politik lesen.